Le nostre stazioni meteo in Italia

Pubblicità
Il mio iltempo24.it
Tyndrum, Gran Bretagna (99020): Temperatura & dewpoint: 16.06.2017 21:00:00 - 22.06.2017 21:00:00 (BST)Tyndrum, Gran Bretagna (99020): Temperatura 5cm: 16.06.2017 21:00:00 - 22.06.2017 21:00:00 (BST)Tyndrum, Gran Bretagna (99020): visibility: 16.06.2017 21:00:00 - 22.06.2017 21:00:00 (BST)Tyndrum, Gran Bretagna (99020): precipitazioni: 16.06.2017 21:00:00 - 22.06.2017 21:00:00 (BST)
Data & Tempo tt [°C] td [°C] tt 5cm [°C] vv [km] rr [mm]
22.06.2017 21:00:00 12,1 9,4 - - 0,0
22.06.2017 20:00:00 12,4 10,3 - - 0,0
22.06.2017 19:00:00 13,2 9,6 - - 0,0
22.06.2017 18:00:00 13,9 10,5 - - 0,0
22.06.2017 17:00:00 14,1 10,1 - - 0,0
22.06.2017 16:00:00 15,0 11,0 - - 0,0
22.06.2017 15:00:00 15,2 10,3 - - 0,0
22.06.2017 14:00:00 15,9 10,3 - - 0,0
22.06.2017 13:00:00 15,5 9,7 - - 0,0
22.06.2017 12:00:00 16,5 10,9 - - 0,0
22.06.2017 11:00:00 15,4 10,7 - - 0,0
22.06.2017 10:00:00 13,4 9,9 - 2,5 0,0
22.06.2017 09:00:00 13,0 11,3 - - 0,0
22.06.2017 08:00:00 12,9 12,0 - 10 0,0
22.06.2017 07:00:00 13,0 12,5 - - -
22.06.2017 06:00:00 13,0 12,5 - - 0,0
22.06.2017 05:00:00 12,9 12,4 - - 0,0
22.06.2017 04:00:00 13,0 12,4 - - 0,0
22.06.2017 03:00:00 13,2 12,6 - - 0,0
22.06.2017 02:00:00 13,6 12,9 - - 0,0
22.06.2017 01:00:00 14,2 13,7 - - 0,0
22.06.2017 00:00:00 14,5 14,0 - - 0,0
21.06.2017 23:00:00 14,8 14,3 - - 0,4
21.06.2017 22:00:00 15,4 15,1 - - 0,2
21.06.2017 21:00:00 15,5 15,2 - - 0,2
21.06.2017 20:00:00 15,5 15,0 - - 1,0
21.06.2017 19:00:00 15,7 15,4 - - 2,2
21.06.2017 18:00:00 - - - - 0,6
21.06.2017 17:00:00 - - - - 3,8
21.06.2017 16:00:00 15,4 14,2 - - 0,0
21.06.2017 15:00:00 15,1 14,0 - - 0,6
21.06.2017 14:00:00 15,0 13,9 - - 0,4
21.06.2017 13:00:00 15,3 13,9 - - 1,0
21.06.2017 12:00:00 14,4 13,1 - - 0,2
21.06.2017 11:00:00 14,4 12,9 - - 0,0
21.06.2017 10:00:00 14,9 12,5 15,6 2,3 0,0
21.06.2017 09:00:00 14,6 12,0 - - 0,0
21.06.2017 08:00:00 14,4 12,1 - - 0,0
21.06.2017 07:00:00 14,2 11,7 - - 0,0
21.06.2017 06:00:00 13,7 11,4 - - 0,0
21.06.2017 05:00:00 14,2 11,9 - - -
21.06.2017 04:00:00 13,5 11,2 - - 0,0
21.06.2017 03:00:00 14,2 11,1 - - 0,0
21.06.2017 02:00:00 14,5 10,9 - - 0,0
21.06.2017 01:00:00 14,3 10,8 - - 0,0
21.06.2017 00:00:00 14,4 10,3 - - 0,0
20.06.2017 23:00:00 14,0 10,3 - - 0,0
20.06.2017 22:00:00 15,5 10,1 - - 0,0
20.06.2017 21:00:00 16,7 10,3 - - 0,0
20.06.2017 20:00:00 18,9 9,0 - - 0,0
20.06.2017 19:00:00 20,1 7,6 - - 0,0
20.06.2017 18:00:00 21,1 9,9 - - 0,0
20.06.2017 17:00:00 20,7 9,6 - - 0,0
20.06.2017 16:00:00 19,7 9,4 - - 0,0
20.06.2017 15:00:00 19,6 11,1 - - 0,0
20.06.2017 14:00:00 19,1 9,1 - - 0,0
20.06.2017 13:00:00 18,2 8,2 - - 0,0
20.06.2017 12:00:00 18,2 9,2 - - 0,0
20.06.2017 11:00:00 16,1 8,7 15,1 1,1 0,0
20.06.2017 10:00:00 15,1 9,1 - - -
20.06.2017 09:00:00 11,8 7,1 - - 0,0
20.06.2017 08:00:00 8,8 7,3 - - 0,0
20.06.2017 07:00:00 5,2 5,1 - - 0,0
20.06.2017 06:00:00 2,9 2,4 - - 0,0
20.06.2017 05:00:00 3,4 2,8 - - 0,0
20.06.2017 04:00:00 4,3 3,5 - - 0,0
20.06.2017 03:00:00 6,1 5,4 - - 0,0
20.06.2017 02:00:00 6,4 5,7 - - 0,0
20.06.2017 01:00:00 7,3 6,1 - - 0,0
20.06.2017 00:00:00 8,7 6,8 - - 0,0
19.06.2017 23:00:00 9,6 7,6 - - 0,0
19.06.2017 22:00:00 11,5 7,8 - - 0,0
19.06.2017 21:00:00 14,0 7,7 - - 0,0
19.06.2017 20:00:00 15,6 7,4 - - 0,0
19.06.2017 19:00:00 17,3 9,3 - - 0,0
19.06.2017 18:00:00 17,6 9,3 - - 0,0
19.06.2017 17:00:00 17,8 10,7 - - 0,0
19.06.2017 16:00:00 17,5 11,0 - - 0,0
19.06.2017 15:00:00 16,5 11,2 - - 0,0
19.06.2017 14:00:00 17,7 11,3 - - 0,0
19.06.2017 13:00:00 16,4 11,8 - - 0,0
19.06.2017 12:00:00 16,7 11,9 - - 0,0
19.06.2017 11:00:00 15,4 12,4 - - 0,0
19.06.2017 10:00:00 15,3 13,9 15,6 2,5 0,0
19.06.2017 09:00:00 15,2 14,7 - - 0,4
19.06.2017 08:00:00 14,6 14,1 - - 0,0
19.06.2017 07:00:00 14,1 13,8 - - 0,0
19.06.2017 06:00:00 13,6 13,4 - - 0,0
19.06.2017 05:00:00 13,4 13,2 - - 0,0
19.06.2017 04:00:00 13,5 13,2 - - 0,0
19.06.2017 03:00:00 13,6 13,2 - - 0,2
19.06.2017 02:00:00 13,7 13,3 - - 0,0
19.06.2017 01:00:00 13,6 13,1 - - 0,0
19.06.2017 00:00:00 13,7 13,0 - - 0,0
18.06.2017 23:00:00 14,2 13,2 - - 0,0
18.06.2017 22:00:00 14,5 13,2 - - 0,0
18.06.2017 21:00:00 15,0 13,5 - - 0,0
18.06.2017 20:00:00 15,1 13,8 - - 0,0
18.06.2017 19:00:00 16,1 13,9 - - 0,0
18.06.2017 18:00:00 16,2 14,1 - - 0,0
18.06.2017 17:00:00 16,6 13,8 - - 0,0
18.06.2017 16:00:00 17,7 14,7 - - 0,0
18.06.2017 15:00:00 16,8 14,6 - - 0,8
18.06.2017 14:00:00 16,3 14,2 - - 0,0
18.06.2017 13:00:00 16,6 13,8 - - 0,0
18.06.2017 12:00:00 16,5 13,6 - - 0,0
18.06.2017 11:00:00 16,0 13,6 - - 0,0
18.06.2017 10:00:00 15,1 13,9 16,7 3,1 0,0
18.06.2017 09:00:00 14,5 13,7 - - 0,0
18.06.2017 08:00:00 14,1 13,1 - - 0,0
18.06.2017 07:00:00 14,2 13,2 - - -
18.06.2017 06:00:00 13,9 13,1 - - 0,2
18.06.2017 05:00:00 13,9 13,2 - - 0,0
18.06.2017 04:00:00 13,9 13,0 - - 0,2
18.06.2017 03:00:00 14,4 13,1 - - 0,2
18.06.2017 02:00:00 14,4 13,2 - - 0,0
18.06.2017 01:00:00 14,8 13,4 - - 0,2
18.06.2017 00:00:00 15,1 14,0 - - 0,2
17.06.2017 23:00:00 15,8 14,1 - - 0,0
17.06.2017 22:00:00 15,6 14,1 - 10 0,0
17.06.2017 21:00:00 16,7 14,6 - - 0,0
17.06.2017 20:00:00 17,3 14,9 - - 0,0
17.06.2017 19:00:00 17,2 15,5 - - 0,2
17.06.2017 18:00:00 17,4 15,4 - - 0,0
17.06.2017 17:00:00 17,6 15,5 - - 0,2
17.06.2017 16:00:00 18,0 15,3 - - 0,0
17.06.2017 15:00:00 18,3 15,9 - - 0,0
17.06.2017 14:00:00 17,4 15,6 - - 0,0
17.06.2017 13:00:00 16,0 15,0 - - 0,2
17.06.2017 12:00:00 15,1 14,2 - - 0,0
17.06.2017 11:00:00 14,8 13,7 - - 0,0
17.06.2017 10:00:00 15,0 13,7 15,0 2,7 0,2
17.06.2017 09:00:00 14,5 13,1 - - 0,0
17.06.2017 08:00:00 13,9 12,6 - - 0,0
17.06.2017 07:00:00 13,6 12,3 - - 0,0
17.06.2017 06:00:00 13,5 12,1 - - 0,0
17.06.2017 05:00:00 13,6 12,3 - - 0,0
17.06.2017 04:00:00 13,4 12,1 - - 0,0
17.06.2017 03:00:00 13,6 12,1 - - 0,2
17.06.2017 02:00:00 13,6 12,5 - - 0,0
17.06.2017 01:00:00 13,6 12,7 - - 0,0
17.06.2017 00:00:00 14,0 12,8 - - 0,2
16.06.2017 23:00:00 13,7 12,7 - - 0,0
16.06.2017 22:00:00 14,1 12,1 - - 0,0
16.06.2017 21:00:00 14,2 12,0 - - 0,0

tt = Temperatura
td = dewpoint
tt 5cm = Temperatura 5cm
vv = visibility
rr = precipitazioni

Stazioni seguenti

WeatherPro
AMSI
MeteoEarth